Retour au catalogue

STARLINK-37260

ActifCommunicationsVLEO
NORAD 68510·PAYLOAD·🇺🇸 United States

Lancé Mar 30, 2026 depuis Cape Canaveral Space Force Station

Loading…

Prochains Passages (prochaines 24 heures)

TLE

FraisSource: CelesTrak SupGP

Époque: Sep 15, 2026, 02:44 UTC

1 68510C 26068C   26258.11437500  .00052031  00000+0  15369-2 0  2580
2 68510  53.1584 322.9573 0001292  90.2148  27.5021 15.34371882    17

Suivez STARLINK-37260 en temps réel avec AllMySat

Download on the App Store